Tracking 29528 objects as of 13-Sep-2024
HD Live streaming from Space Station
objects crossing your sky now

RADUGA 1-4

Track RADUGA 1-4 now!
RADUGA 1-4 is classified as:


NORAD ID: 25642
Int'l Code: 1999-010A
Perigee: 35,784.1 km
Apogee: 35,823.7 km
Inclination: 15.5 °
Period: 1,436.6 minutes
Semi major axis: 42174 km
RCS: 12.5893 m2 (large)
Launch date: February 28, 1999
Source: Commonwealth of Independent States (former USSR) (CIS)
Launch site: TYURATAM MISSILE AND SPACE COMPLEX (TTMTR)

Military communication.
Your satellite tracking list
Your tracking list is empty




NASA's NSSDC Master Catalog

Two Line Element Set (TLE):
1 25642U 99010A   24255.94876400  .00000125  00000-0  00000-0 0  9992
2 25642  15.4589   6.9530 0004693 236.9533 129.0611  1.00235683 93504
Source of the keplerian elements: AFSPC